Location: Cerezo de Arriba
(41.2389°N, 3.5585°W)
Time: 04:14:09
(UTC+00:00)

Meteor 1-27 Rocket - Pass Details

Date: 19 May 2025
Orbit: 830 x 908 km, 81.3° (Epoch: 23 June)

Event Time Altitude Azimuth Distance (km) Brightness Sun altitude
Exits shadow 22:30:55 44° 95° (E) 1,162 4.1 -24.5°
Maximum altitude 22:30:59 44° 93° (E) 1,161 4.1 -24.6°
Drops below altitude 10° 22:36:13 10° 23° (NNE) 2,460 6.6 -25.0°
Sets 22:38:42 0° 17° (NNE) 3,391 7.6 -25.2°
